sat.trackr.live / text

‹ back to catalog

STARLINK-34519

NORAD 64608 · 2025-137Q

PAYLOAD ACTIVE UNKNOWN

§ Identity

Operator
Country
US
Launch date
2025-06-25
Launch site
AFETR
Launch vehicle
Mass (kg)
RCS (m²)

Purposes: comms

External: N2YO · Heavens-Above · Gunter

§ Orbital elements

Epoch: 2026-05-24T23:09:31.679136Z

Period
94.11 min
Inclination
53.1590°
Eccentricity
0.0001100
Mean motion
15.30197528 rev/d
Perigee alt
474.5 km
Apogee alt
476.0 km
Semi-major
6,853.4 km
B*
5.1827e-4
RAAN
340.8984°
Arg perigee
75.6147°
Mean anomaly
284.4976°
Rev number
5,241

§ Raw data

STARLINK-345191 64608U 25137Q   26144.96494999  .00015021  00000+0  51827-3 0  99922 64608  53.1590 340.8984 0001100  75.6147 284.4976 15.30197528 52410

JSON: /api/v1/satellites/64608 · /tle

For live sub-satellite position, see the globe view (requires WebGL).

§ Visibility from observer

Set your observer location to see the next 7 days of passes ≥ 10°. The values pass through the URL so the page stays shareable.

No JS? Fill the form by hand. The geolocation button needs JavaScript.